Weather History for Swansboro, NC

Change the Weather History Date:

Monday, October 8, 2012

  Actual Average (KNKT) Record (KNKT)
Temperature  
Mean Temperature 62 °F -  
Max Temperature 70 °F 74 °F 89 °F (2007)
Min Temperature 55 °F 55 °F 42 °F (2001)
Degree Days  
Heating Degree Days 2    
Growing Degree Days 12 (Base 50)    
Moisture  
Dew Point 57 °F    
Average Humidity 89    
Maximum Humidity 100    
Minimum Humidity 78    
Precipitation  
Precipitation 0.15 in - - ()
Sea Level Pressure  
Sea Level Pressure 30.10 in    
Wind  
Wind Speed 8 mph (NNE)    
Max Wind Speed 14 mph    
Max Gust Speed 22 mph    
Visibility 9 miles    
Events Rain , Thunderstorm    
Averages and records for this station are not official NWS values.
T = Trace of Precipitation, MM = Missing Value Source: NWS Daily Summary

Daily Weather History Graph

Daily Weather History Graph

Search for Another Location

Airport:

Trip Planner

Search our weather history database for the weather conditions in past years. The results will help you decide how hot, cold, wet, or windy it might be!

Date:

Astronomy

Oct. 08, 2012 Rise Set
Actual Time 7:08 AM EDT 6:41 PM EDT
Civil Twilight 6:43 AM EDT 7:07 PM EDT
Nautical Twilight 6:14 AM EDT 7:36 PM EDT
Astronomical Twilight 5:44 AM EDT 8:05 PM EDT
Moon 12:02 AM EDT (10/8) 2:15 PM EDT (10/8)
Length of Visible Light 12h 23m
Length of Day
11h 33m
Waning Gibbous, 46% of the Moon is Illuminated
Oct 8
Waning Gibbous
Oct 15
New
Oct 21
First Quarter
Oct 29
Full
Nov 6
Last Quarter

Hourly Weather History & Observations

Time (EDT) Temp. Dew Point Humidity Pressure Visibility Wind Dir Wind Speed Gust Speed Precip Events Conditions
12:29 AM 57.2 °F 53.6 °F 88% 30.09 in 10.0 mi North 5.8 mph - N/A   Scattered Clouds
12:38 AM 57.2 °F 53.6 °F 88% 30.09 in 10.0 mi North 8.1 mph - N/A   Mostly Cloudy
2:57 AM 57.0 °F 53.1 °F 87% 30.09 in 10.0 mi North 10.4 mph 18.4 mph N/A   Overcast
3:57 AM 57.0 °F 53.1 °F 87% 30.12 in 10.0 mi NNE 6.9 mph - N/A   Overcast
4:33 AM 55.4 °F 51.8 °F 88% 30.10 in 10.0 mi NNE 8.1 mph - N/A   Overcast
5:41 AM 55.4 °F 51.8 °F 88% 30.12 in 10.0 mi NNE 6.9 mph - N/A   Overcast
6:09 AM 57.2 °F 53.6 °F 88% 30.13 in 10.0 mi NNE 6.9 mph - N/A   Overcast
6:57 AM 57.0 °F 54.0 °F 89% 30.15 in 10.0 mi NNE 6.9 mph - N/A   Overcast
7:57 AM 57.9 °F 54.0 °F 87% 30.16 in 9.0 mi North 9.2 mph - N/A   Overcast
8:22 AM 57.2 °F 55.4 °F 94% 30.14 in 9.0 mi NNE 8.1 mph - N/A   Overcast
8:53 AM 59.0 °F 55.4 °F 88% 30.16 in 10.0 mi NNE 6.9 mph - N/A   Overcast
8:57 AM 59.0 °F 55.9 °F 90% 30.17 in 9.0 mi North 9.2 mph - N/A   Overcast
9:11 AM 59.0 °F 55.4 °F 88% 30.17 in 7.0 mi NNE 8.1 mph - N/A   Overcast
9:19 AM 59.0 °F 55.4 °F 88% 30.17 in 8.0 mi NNE 5.8 mph - N/A   Overcast
9:32 AM 59.0 °F 55.4 °F 88% 30.16 in 8.0 mi NNE 9.2 mph - N/A   Overcast
9:57 AM 60.1 °F 57.0 °F 90% 30.18 in 10.0 mi North 5.8 mph - N/A   Overcast
10:24 AM 60.8 °F 57.2 °F 88% 30.16 in 10.0 mi NNE 8.1 mph - N/A   Overcast
11:50 AM 66.2 °F 59.0 °F 78% 30.13 in 10.0 mi NE 9.2 mph - N/A   Overcast
11:57 AM 66.9 °F 60.1 °F 79% 30.14 in 10.0 mi NE 10.4 mph - N/A   Overcast
12:57 PM 66.9 °F 61.0 °F 81% 30.11 in 10.0 mi NE 9.2 mph - 0.00 in Rain Light Rain
2:57 PM 69.1 °F 62.1 °F 78% 30.07 in 10.0 mi NNE 8.1 mph - N/A   Overcast
3:07 PM 69.8 °F 62.6 °F 78% 30.05 in 10.0 mi NNE 13.8 mph 18.4 mph N/A   Overcast
3:57 PM 70.0 °F 63.0 °F 78% 30.06 in 10.0 mi NE 9.2 mph 17.3 mph N/A   Overcast
4:57 PM 68.0 °F 63.0 °F 84% 30.05 in 5.0 mi NNE 8.1 mph - 0.02 in Rain Heavy Rain
5:53 PM 66.2 °F 62.6 °F 88% 30.05 in 10.0 mi NNW 8.1 mph - 0.02 in   Mostly Cloudy
5:57 PM 66.0 °F 63.0 °F 90% 30.06 in 10.0 mi North 8.1 mph - 0.02 in   Mostly Cloudy
6:37 PM 64.4 °F 62.6 °F 94% 30.04 in 10.0 mi NNW 10.4 mph - N/A   Overcast
6:48 PM 64.4 °F 60.8 °F 88% 30.02 in 10.0 mi North 11.5 mph - N/A   Overcast
7:55 PM 60.8 °F 57.2 °F 88% 30.06 in 9.0 mi NNW 11.5 mph 20.7 mph N/A   Overcast
7:57 PM 60.1 °F 57.9 °F 93% 30.07 in 9.0 mi NNW 11.5 mph 20.7 mph N/A   Overcast
8:45 PM 57.2 °F 55.4 °F 94% 30.07 in 8.0 mi North 12.7 mph 21.9 mph N/A Thunderstorm Thunderstorm
8:57 PM 57.9 °F 55.9 °F 93% 30.09 in 9.0 mi North 10.4 mph - 0.00 in Rain Light Rain
9:39 PM 57.2 °F 55.4 °F 94% 30.08 in 3.0 mi NNE 9.2 mph 17.3 mph 0.07 in Rain Heavy Rain
9:46 PM 57.2 °F 57.2 °F 100% 30.07 in 4.0 mi NE 11.5 mph - 0.10 in Rain Heavy Rain
9:57 PM 59.0 °F 57.9 °F 96% 30.07 in 9.0 mi North 6.9 mph - 0.11 in Rain Light Rain
10:57 PM 60.1 °F 59.0 °F 96% 30.07 in 10.0 mi NNW 5.8 mph - 0.00 in   Scattered Clouds
11:06 PM 60.8 °F 59.0 °F 94% 30.06 in 10.0 mi North 6.9 mph - N/A   Mostly Cloudy
11:45 PM 60.8 °F 59.0 °F 94% 30.05 in 9.0 mi North 5.8 mph - N/A   Overcast
11:57 PM 60.1 °F 59.0 °F 96% 30.07 in 8.0 mi NNW 5.8 mph - N/A   Overcast